Flag for Austria Past Weather in St. Veit an der Glan, Carinthia, Austria — Yesterday and Last 2 Weeks

Now
65 °F

Partly sunny.


Feels Like: 65 °F
Forecast: 50 / 69 °F
Wind: 3 mph from West

Location: Klagenfurt-Flughafen

Current Time: May 30, 2016 at 8:37:15 PM

Latest Report: May 30, 2016 at 8:00 PM


Visibility: 31 mi

Pressure: 29.79 "Hg

Humidity: 60%

Dew Point: 51 °F

Location of St. Veit an der GlanLocation

Past Weather in St. Veit an der Glan — Graph

°F

St. Veit an der Glan Temperature Yesterday

Maximum temperature yesterday: 79 °F (at 3:00 PM)
Minimum temperature yesterday: 59 °F (at 6:00 AM)
Average temperature yesterday: 68 °F

High & Low Weather Summary for the Past Weeks

 TemperatureHumidityPressure
High83 °F (May 28, 4:00 PM)98% (May 30, 6:00 AM)30.22 "Hg (May 30, 6:00 AM)
Low38 °F (May 17, 6:00 AM)25% (May 26, 4:00 PM)29.65 "Hg (May 29, 4:00 PM)
Average60 °F64%29.93 "Hg
* Reported May 15 6:00 PM — May 30 6:00 PM, St. Veit an der Glan, Weather by CustomWeather, © 2016

Note: Actual official high and low records may vary slightly from our data, if they occured in-between our weather recording intervals... More about our weather records

Advertising

St. Veit an der Glan Weather History for the Previous 24 Hours

Scroll right to see more
 ConditionsComfort  
Time TempWeatherWind HumidityBarometerVisibility
6:00 PM
Mon, May 30
70 °FPartly sunny.3 mph48%29.75 "Hg25 mi
3:00 PM71 °FOvercast.6 mph56%29.74 "Hg19 mi
2:00 PM69 °FOvercast.N/A62%29.74 "Hg19 mi
9:00 AM60 °FLow clouds.N/A83%29.77 "Hg17 mi
8:00 AM58 °FPartly sunny.N/A90%29.76 "Hg12 mi
7:00 AM56 °FPartly sunny.N/A95%29.77 "Hg8 mi
6:00 AM54 °FLight rain. Scattered clouds.N/A98%29.76 "Hg0 mi
5:00 AM54 °FPassing clouds.N/A95%29.76 "Hg9 mi
4:00 AM56 °FPassing clouds.N/A93%29.75 "Hg10 mi
3:00 AM57 °FPassing clouds.N/A94%29.75 "Hg14 mi
2:00 AM58 °FOvercast.N/A91%29.75 "Hg25 mi
1:00 AM59 °FPassing clouds.N/A94%29.75 "Hg3 mi
12:00 AM60 °FLow clouds.N/A94%29.75 "Hg15 mi
11:00 PM
Sun, May 29
61 °FSprinkles. Overcast.N/A90%29.74 "Hg4 mi
10:00 PM62 °FPassing clouds.N/A85%29.72 "Hg17 mi
9:00 PM64 °FPassing clouds.N/A77%29.71 "Hg19 mi
8:00 PM66 °FPartly sunny.N/A72%29.72 "Hg25 mi
Weather by CustomWeather, © 2016

See weather overviewHow to use our weather pages